Weather Roundup
Issued by NWS Springfield, MO

Home | Current Version | Previous Version | Text Only | Print | Product List | Glossary On
Versions: 1 2 3 4 5 6 7 8 9 10 11 12 13 14 15 16 17 18 19 20 21 22 23 24 25 26 27 28 29 30 31 32 33 34 35 36 37 38 39 40 41 42 43 44 45 46 47 48 49 50
000
NZUS99 KSGF 252107
HRRSGF

HOURLY WEATHER
NATIONAL WEATHER SERVICE SPRINGFIELD MO
400 PM CDT THU AUG 25 2016

......SGF CWA......

CITY           SKY/WX    TMP DP  RH WIND       PRES   REMARKS
SPRINGFIELD    MOSUNNY   91  69  48 S14       30.04F HX  96
JOPLIN         TSTM      78  62  57 N16G37    30.03F
WEST PLAINS    CLOUDY    89  68  49 S7        30.10F HX  93
ROLLA          SUNNY     89  73  59 SW9       30.05F HX  97
OSAGE BEACH    PTSUNNY   89  75  63 CALM      30.02F HX  99
BRANSON        PTSUNNY   91  70  49 CALM      30.09F HX  97

......SURROUNDING SGF CWA......

CITY           SKY/WX    TMP DP  RH WIND       PRES   REMARKS
CHANUTE        MOSUNNY   89  71  55 W8        30.02F HX  95
PARSONS        CLOUDY    91  69  48 W6        30.02F HX  96
COFFEYVILLE    MOSUNNY   94  67  41 NW6       29.99F HX  97
EMPORIA        MOSUNNY   83  70  64 MISG      30.05F
GROVE OK       MOSUNNY   91  70  49 S7        30.02F HX  97
ROGERS AR      MOSUNNY   91  67  44 S5        30.06F HX  94
SILOAM SPRINGS MOSUNNY   93  64  38 S8G17       N/A  HX  95
HARRISON AR    CLOUDY    90  67  46 CALM      30.09F HX  93
NEAR YELLVILLE SUNNY     90  70  51 CALM      30.04F HX  95

......KANSAS AND MISSOURI......

CITY           SKY/WX    TMP DP  RH WIND       PRES   REMARKS
KANSAS CTY INT PTSUNNY   82  69  64 N5        30.05F
DOWNTOWN KC    PTSUNNY   85  68  56 NW5       30.02F
COLUMBIA       PTSUNNY   88  72  58 CALM      30.04F HX  94
SEDALIA        CLOUDY    87  72  60 VRB6      30.04F HX  93
ST JOSEPH      CLOUDY    78  68  71 N13       30.08F
ST LOUIS       PTSUNNY   93  70  46 W10       30.03F HX  99
SPIRIT OF STL  MOSUNNY   92  72  51 W9        30.02F HX  99
KIRKSVILLE     PTSUNNY   77  68  73 NE8       30.08S
WICHITA        PTSUNNY   82  67  60 VRB7      30.06F
TOPEKA           N/A     80  70  71 N10       30.06S
OLATHE         PTSUNNY   82  70  66 S3        30.05F

......TENNESSEE......

CITY           SKY/WX    TMP DP  RH WIND       PRES   REMARKS
MEMPHIS        CLOUDY    92  73  53 E10       30.04F HX 100
NASHVILLE      TSTM      81  72  74 E13G31    30.10S

......ARKANSAS.......

CITY           SKY/WX    TMP DP  RH WIND       PRES   REMARKS
FAYETTEVILLE   MOSUNNY   90  71  53 S7        30.06F HX  96
FT SMITH       MOSUNNY   94  68  42 E3        30.00F HX  98
LITTLE ROCK    CLOUDY    83  77  82 S3        30.06F HX  92

......OKLAHOMA.......

CITY           SKY/WX    TMP DP  RH WIND       PRES   REMARKS
TULSA          CLOUDY    96  69  41 S13       29.95F HX 102
PONCA CITY     SUNNY     89  67  47 VRB6      30.01F HX  92
MCALESTER      SUNNY     95  66  38 VRB6      30.00F HX  98
OKLAHOMA CITY  CLOUDY    88  65  46 E6        30.02F HX  90

......IOWA............

CITY           SKY/WX    TMP DP  RH WIND       PRES   REMARKS
DES MOINES     CLOUDY    76  64  66 N5        30.09F
QUAD CITIES    MOSUNNY   80  65  59 NW5       30.06

......ILLINOIS........

CITY           SKY/WX    TMP DP  RH WIND       PRES   REMARKS
QUINCY         SUNNY     83  72  69 CALM      30.03F
CHICAGO        CLOUDY    82  63  52 W6        30.02S



USA.gov is the U.S. government's official web portal to all federal, state and local government web resources and services.